カタログに戻る

CZ-4 DEB

運用中SSO
NORAD 35329·DEBRIS·🇨🇳 China

打ち上げ Oct 14, 1999 から Taiyuan Satellite Launch Center

Loading…

次のパス (今後24時間)

TLE

最新Source: Space-Track

元期: Sep 14, 2026, 03:37 UTC

1 35329U 99057SH  26257.15083656  .00000154  00000-0  71812-4 0  9991
2 35329  98.4136  18.6202 0131283 199.8186 284.9008 14.28547351258415

AllMySatでCZ-4 DEBをリアルタイム追跡

Download on the App Store